Regional Weather Roundup
Issued by NWS Jackson, KY

Home | Current Version | Previous Version | Text Only | Print | Product List | Glossary On
Versions: 1 2 3 4 5 6 7 8 9 10 11 12 13 14 15 16 17 18 19 20 21 22 23 24 25 26 27 28 29 30 31 32 33 34 35 36 37 38 39 40 41 42 43 44 45 46 47 48 49 50
000
ASUS43 KJKL 071810
RWRJKL

EAST KENTUCKY HOURLY WEATHER ROUNDUP
NATIONAL WEATHER SERVICE JACKSON KY
100 PM EST SUN FEB 07 2016

NOTE: "FAIR" INDICATES FEW OR NO CLOUDS BELOW 12,000 FEET WITH
NO SIGNIFICANT WEATHER AND/OR OBSTRUCTIONS TO VISIBILITY.

* THESE REPORTS ARE NOT UNDER NWS QUALITY CONTROL AND MAY NOT
  REPORT WEATHER SUCH AS PRECIPITATION AND FOG.

KYZ079-080-083-085-087-088-110-112-115-119-120-071900
...EASTERN KENTUCKY...

CITY           SKY/WX    TMP DP  RH WIND       PRES   REMARKS
JACKSON        SUNNY     51  21  30 VRB6      30.07F
6HR MIN TEMP:  30; 6HR MAX TEMP:  51;

LONDON         SUNNY     49  21  33 SW9       30.09F
6HR MIN TEMP:  23; 6HR MAX TEMP:  49;

SOMERSET*      MOSUNNY   48  23  37 W5        30.10F
MONTICELLO*    MOSUNNY   50  23  34 W15       30.11F
6HR MIN TEMP:  19; 6HR MAX TEMP:  51;

WILLIAMSBURG*  CLEAR     50  21  32 SW6       30.09F
MIDDLESBORO*   SUNNY     50  22  33 CALM      30.09F
6HR MIN TEMP:  23; 6HR MAX TEMP:  50;

HARLAN APT*      N/A     50  21  32 S6        30.07F
HAZARD APT*    CLEAR    N/A N/A N/A SW5       30.07F
BLACK MTN*       N/A     37  23  56 W2          N/A
BIG SANDY*     CLEAR     50  24  35 SW6       30.07F
6HR MIN TEMP:  31; 6HR MAX TEMP:  50;

MOREHEAD APT*  CLEAR     50  23  34 S14       30.08F
$$

KYZ035-036-041-042-044-050-067-078-099-071900
...CENTRAL KENTUCKY...

CITY           SKY/WX    TMP DP  RH WIND       PRES   REMARKS
MT STERLING*   SUNNY     50  27  40 SW9       30.07F
DANVILLE*      MOSUNNY   50  23  34 SW8       30.08F
RICHMOND*      MOSUNNY   50  23  34 SW8       30.07F
LEXINGTON      MOSUNNY   51  22  31 SW15      30.05F
6HR MIN TEMP:  29; 6HR MAX TEMP:  51;

FRANKFORT      MOSUNNY   51  20  29 SW14      30.04F
6HR MIN TEMP:  24; 6HR MAX TEMP:  51;

$$

KYZ091>093-OHZ055-061-077-WVZ005-015-034-035-042-071900
...SOUTHERN OHIO/WEST VIRGINIA...

CITY           SKY/WX    TMP DP  RH WIND       PRES   REMARKS
COVINGTON      MOSUNNY   50  23  34 SW12G18   30.01F
COLUMBUS       PTSUNNY   48  26  42 S9        30.00F
DAYTON         CLOUDY    48  25  40 S18G25    29.97F
WILMINGTON     MOSUNNY   47  26  44 SW12      30.00F
HUNTINGTON       N/A     51  25  36 SW7       30.06F
CHARLESTON       N/A     49  23  36 CALM      30.06F
PINEVILLE*       N/A     47  19  32 MISG      30.10F
BECKLEY          N/A     44  22  41 NW12G18   30.02F
$$

VAZ002-007-008-TNZ017-027-036-066-071-071900
...SOUTHWEST VIRGINIA/EAST TENNESSEE...

CITY           SKY/WX    TMP DP  RH WIND       PRES   REMARKS
BRISTOL        MOSUNNY   47  24  40 W10       30.09F
KNOXVILLE      MOSUNNY   49  23  36 SW5       30.13F
OAK RIDGE      SUNNY     51  23  33 S5        30.13F
CROSSVILLE     SUNNY     48  19  31 VRB6      30.10F
NASHVILLE      MOSUNNY   54  19  25 S8        30.12F
$$

...KEY TO REMARKS...
VSB - VISIBILITY IN MILES
WCI - WIND CHILL INDEX
HX  - HEAT INDEX

$$



USA.gov is the U.S. government's official web portal to all federal, state and local government web resources and services.